Weather History for Herat, Afghanistan

Change the Weather History Date:

Tuesday, February 5, 2013

  Actual Average Record
Temperature  
Mean Temperature 41 °F -  
Max Temperature 50 °F 55 °F - ()
Min Temperature 32 °F 32 °F - ()
Degree Days  
Heating Degree Days 24    
Moisture  
Dew Point 27 °F    
Average Humidity 62    
Maximum Humidity 81    
Minimum Humidity 37    
Precipitation  
Precipitation 0.00 in 0.06 in - ()
Sea Level Pressure  
Sea Level Pressure 30.25 in    
Wind  
Wind Speed 4 mph ()    
Max Wind Speed 8 mph    
Max Gust Speed 16 mph    
Visibility 6.2 miles    
Events      
T = Trace of Precipitation, MM = Missing Value Source: Averaged Metar Reports

Daily Weather History Graph

Daily Weather History Graph

Search for Another Location

Airport:

Trip Planner

Search our weather history database for the weather conditions in past years. The results will help you decide how hot, cold, wet, or windy it might be!

Date:

Astronomy

Feb. 05, 2013 Rise Set
Actual Time 7:15 AM AFT 5:55 PM AFT
Civil Twilight 6:49 AM AFT 6:21 PM AFT
Nautical Twilight 6:19 AM AFT 6:51 PM AFT
Astronomical Twilight 5:50 AM AFT 7:20 PM AFT
Moon 2:25 AM AFT (2/5) 12:53 PM AFT (2/5)
Length of Visible Light 11h 31m
Length of Day
10h 39m
Waning Crescent, 31% of the Moon is Illuminated
Feb 5
Waning Crescent
Feb 10
New
Feb 18
First Quarter
Feb 26
Full
Mar 5
Last Quarter

Hourly Weather History & Observations

Time (AFT) Temp. Windchill Dew Point Humidity Pressure Visibility Wind Dir Wind Speed Gust Speed Precip Events Conditions
12:24 AM 35.6 °F 31.7 °F 26.6 °F 70% 30.27 in - NNW 4.6 mph - N/A   Clear
1:24 AM 35.6 °F 29.2 °F 24.8 °F 65% 30.27 in - NNW 8.1 mph - N/A   Clear
2:24 AM 33.8 °F 29.6 °F 24.8 °F 70% 30.27 in - North 4.6 mph - N/A   Clear
3:25 AM 33.8 °F - 24.8 °F 70% 30.24 in - West 2.3 mph - N/A   Clear
4:24 AM 32.0 °F 28.7 °F 26.6 °F 80% 30.24 in - WSW 3.5 mph - N/A   Clear
5:24 AM 32.0 °F - 26.6 °F 80% 30.24 in - SW 2.3 mph - N/A   Clear
6:24 AM 32.0 °F - 24.8 °F 75% 30.24 in - Calm Calm - N/A   Clear
7:24 AM 33.8 °F - 24.8 °F 70% 30.27 in - Variable 2.3 mph - N/A   Clear
8:24 AM 35.6 °F - 26.6 °F 70% 30.27 in - SW 2.3 mph - N/A   Clear
9:24 AM 37.4 °F 32.8 °F 26.6 °F 65% 30.30 in - West 5.8 mph - N/A   Clear
10:24 AM 39.2 °F 35.9 °F 26.6 °F 61% 30.30 in - WNW 4.6 mph - N/A   Clear
11:25 AM 41.0 °F 38.0 °F 26.6 °F 57% 30.27 in - West 4.6 mph - N/A   Clear
12:25 PM 42.8 °F - 30.2 °F 61% 30.24 in - Variable 2.3 mph 16.1 mph N/A   Clear
1:25 PM 46.4 °F - 30.2 °F 53% 30.21 in - Variable 1.2 mph - N/A   Clear
2:25 PM 46.4 °F 43.5 °F 30.2 °F 53% 30.21 in - West 5.8 mph - N/A   Clear
3:25 PM 50.0 °F - 28.4 °F 43% 30.21 in 6.2 mi West 6.9 mph - N/A   Partly Cloudy
4:25 PM 48.2 °F - 23.0 °F 37% 30.21 in - West 6.9 mph - N/A   Clear
5:25 PM 46.4 °F 44.3 °F 24.8 °F 43% 30.21 in - West 4.6 mph - N/A   Clear
6:25 PM 44.6 °F 41.4 °F 26.6 °F 49% 30.21 in - WSW 5.8 mph - N/A   Clear
7:25 PM 42.8 °F 39.3 °F 26.6 °F 53% 30.24 in - WSW 5.8 mph - N/A   Clear
8:25 PM 41.0 °F - 26.6 °F 57% 30.24 in - SW 2.3 mph - N/A   Clear
10:24 PM 37.4 °F - 26.6 °F 65% 30.27 in - Variable 1.2 mph - N/A   Clear
11:24 PM 33.8 °F - 28.4 °F 81% 30.27 in - Calm Calm - N/A   Clear